User: anonymous   Login
Location: Boiro
(42.6475°N, 8.8834°W)
Time: 19:11:13
(UTC+01:00)
Language:

BEESAT 2 - Orbit

View from above orbital plane
View from above orbital plane
View from above satellite
View from above satellite

Ground track
Ground track

The orbit data is extracted from the following two-line orbital elements,

1 39136U 13015G   22337.88169256  .00012945  00000-0  49070-3 0  9998
2 39136  64.8732 273.6786 0025062 290.2684  69.5753 15.26877939531741
Epoch (UTC): 03 December 2022 21:09:38
Eccentricity: 0.0025062
inclination: 64.8732°
perigee height: 468 km
apogee height: 502 km
right ascension of ascending node: 273.6786°
argument of perigee: 290.2684°
revolutions per day: 15.26877939
mean anomaly at epoch: 69.5753°
orbit number at epoch: 53174

The dashed part of the orbit path shows where the satellite is in the earth's shadow,  

DLR